Weather History for KBIL - July, 2013

Change the Weather History Date:

Thursday, July 25, 2013

  Actual Average Record
Temperature  
Mean Temperature 72 °F 74 °F  
Max Temperature 84 °F 89 °F 98 °F (2011)
Min Temperature 60 °F 60 °F 48 °F (2005)
Degree Days  
Heating Degree Days 0 0  
Month to date heating degree days 0 12  
Since 1 June heating degree days 73 108  
Since 1 July heating degree days 0 12  
Cooling Degree Days 7 9  
Month to date cooling degree days 268 198  
Year to date cooling degree days 391 300  
Since 1 June cooling degree days 364 283  
Growing Degree Days 22 (Base 50)    
Moisture  
Dew Point 52 °F    
Average Humidity 53    
Maximum Humidity 73    
Minimum Humidity 33    
Precipitation  
Precipitation T in 0.04 in 0.92 in (1966)
Month to date precipitation 0.51 1.11  
Year to date precipitation 7.83 9.09  
Snow  
Snow 0.00 in 0.00 in T in (1996)
Month to date snowfall 0.0 0.0  
Since 1 June snowfall 0.0 0.0  
Since 1 July snowfall 0.0 0.0  
Snow Depth 0.00 in    
Sea Level Pressure  
Sea Level Pressure 30.08 in    
Wind  
Wind Speed 12 mph (NE)    
Max Wind Speed 33 mph    
Max Gust Speed 44 mph    
Visibility 10 miles    
Events Thunderstorm    
T = Trace of Precipitation, MM = Missing Value Source: NWS Daily Summary

Daily Weather History Graph

Daily Weather History Graph

Search for Another Location

Airport or City:

Trip Planner

Search our weather history database for the weather conditions in past years. The results will help you decide how hot, cold, wet, or windy it might be!

Date:

Astronomy

Jul. 25, 2013 Rise Set
Actual Time 5:49 AM MDT 8:51 PM MDT
Civil Twilight 5:14 AM MDT 9:26 PM MDT
Nautical Twilight 4:28 AM MDT 10:11 PM MDT
Astronomical Twilight 3:33 AM MDT 11:05 PM MDT
Moon 10:17 PM MDT (7/25) 9:37 AM MDT (7/25)
Length of Visible Light 16h 12m
Length of Day
15h 01m
Waning Gibbous, 88% of the Moon is Illuminated
Jul 25
Waning Gibbous
Jul 29
Last Quarter
Aug 6
New
Aug 14
First Quarter
Aug 20
Full

Hourly Weather History & Observations

Time (MDT) Temp. Dew Point Humidity Pressure Visibility Wind Dir Wind Speed Gust Speed Precip Events Conditions
12:04 AM 69.1 °F 53.1 °F 57% 30.00 in 10.0 mi NE 15.0 mph - N/A Thunderstorm Thunderstorm
12:25 AM 68.0 °F 52.0 °F 56% 30.01 in 10.0 mi North 13.8 mph - N/A   Scattered Clouds
12:53 AM 69.1 °F 51.1 °F 53% 29.97 in 10.0 mi North 27.6 mph 36.8 mph N/A   Scattered Clouds
1:53 AM 64.9 °F 55.0 °F 70% 29.98 in 10.0 mi NE 21.9 mph 31.1 mph 0.00 in   Partly Cloudy
2:53 AM 66.0 °F 51.1 °F 59% 30.01 in 10.0 mi ENE 12.7 mph 21.9 mph N/A   Mostly Cloudy
3:53 AM 64.9 °F 51.1 °F 61% 30.06 in 10.0 mi East 3.5 mph - N/A   Mostly Cloudy
4:53 AM 63.0 °F 51.1 °F 65% 30.07 in 10.0 mi North 3.5 mph - 0.00 in   Partly Cloudy
5:53 AM 62.1 °F 51.1 °F 67% 30.08 in 10.0 mi NW 8.1 mph - N/A   Partly Cloudy
6:53 AM 61.0 °F 52.0 °F 72% 30.09 in 10.0 mi NW 8.1 mph - N/A   Partly Cloudy
7:53 AM 66.0 °F 52.0 °F 60% 30.10 in 10.0 mi Variable 3.5 mph - N/A   Partly Cloudy
8:53 AM 70.0 °F 51.1 °F 51% 30.12 in 10.0 mi NNW 4.6 mph - N/A   Partly Cloudy
9:53 AM 72.0 °F 52.0 °F 49% 30.13 in 10.0 mi ENE 5.8 mph - N/A   Partly Cloudy
10:53 AM 73.9 °F 52.0 °F 46% 30.12 in 10.0 mi ENE 12.7 mph - N/A   Partly Cloudy
11:53 AM 75.9 °F 52.0 °F 43% 30.12 in 10.0 mi NE 10.4 mph 19.6 mph N/A   Partly Cloudy
12:53 PM 78.1 °F 51.1 °F 39% 30.11 in 10.0 mi ENE 13.8 mph - N/A   Partly Cloudy
1:53 PM 81.0 °F 52.0 °F 36% 30.09 in 10.0 mi ENE 12.7 mph 23.0 mph N/A   Partly Cloudy
2:53 PM 82.0 °F 51.1 °F 34% 30.07 in 10.0 mi ENE 13.8 mph 21.9 mph N/A   Scattered Clouds
3:53 PM 82.9 °F 50.0 °F 32% 30.06 in 10.0 mi East 16.1 mph 20.7 mph N/A   Scattered Clouds
4:53 PM 82.9 °F 51.1 °F 33% 30.05 in 10.0 mi NE 16.1 mph - N/A   Scattered Clouds
5:53 PM 82.9 °F 50.0 °F 32% 30.05 in 10.0 mi NE 16.1 mph - N/A   Partly Cloudy
6:53 PM 79.0 °F 51.1 °F 38% 30.06 in 10.0 mi NE 16.1 mph - N/A   Scattered Clouds
7:44 PM 78.1 °F 51.1 °F 39% 30.12 in 10.0 mi ENE 20.7 mph - N/A   Mostly Cloudy
7:53 PM 77.0 °F 52.0 °F 42% 30.04 in 10.0 mi ENE 19.6 mph 29.9 mph N/A   Scattered Clouds
8:01 PM 77.0 °F 52.0 °F 42% 30.14 in 10.0 mi ENE 15.0 mph 29.9 mph N/A   Scattered Clouds
8:53 PM 72.0 °F 53.1 °F 51% 30.08 in 10.0 mi NE 16.1 mph - N/A   Partly Cloudy
9:53 PM 70.0 °F 53.1 °F 55% 30.12 in 10.0 mi NE 16.1 mph - N/A   Partly Cloudy
10:53 PM 66.9 °F 52.0 °F 59% 30.13 in 10.0 mi ENE 16.1 mph - N/A   Clear
11:53 PM 64.9 °F 51.1 °F 61% 30.14 in 10.0 mi NE 15.0 mph - N/A   Partly Cloudy